Location: Aalen
(48.8330°N, 10.1000°E)
Time: 14:09:39
(UTC+02:00)

Altair - All Passes

Search period start: 02 August 2021 00:00
Search period end: 12 August 2021 00:00
Orbit: 1502 x 1682 km, 47.2° (Epoch: 02 August)

Date Brightness Start Highest point End Pass type
(mag) Time Alt. Az. Time Alt. Az. Time Alt. Az.
02 Aug - 01:31:40 10° SSW 01:39:24 29° SE 01:46:58 10° E visible
02 Aug - 03:33:40 10° SW 03:42:55 64° SSE 03:51:57 10° E visible
02 Aug - 05:38:01 10° W 05:47:21 82° S 05:56:32 10° E daylight
02 Aug - 07:42:42 10° WNW 07:51:42 61° SSW 08:00:41 10° SE daylight
02 Aug - 09:47:55 10° W 09:55:02 26° SW 10:02:13 10° S daylight
03 Aug - 01:06:51 10° S 01:14:22 27° SE 01:21:42 10° E visible
03 Aug - 03:08:33 10° SW 03:17:47 62° SSE 03:26:48 10° ENE visible
03 Aug - 05:12:50 10° W 05:22:11 82° S 05:31:22 10° E visible
03 Aug - 07:17:32 10° W 07:26:35 64° SSW 07:35:36 10° SE daylight
03 Aug - 09:22:37 10° W 09:30:00 28° SW 09:37:26 10° S daylight
04 Aug - 00:42:04 10° S 00:49:19 25° SE 00:56:24 10° E visible
04 Aug - 02:43:26 10° SW 02:52:40 59° SSE 03:01:39 10° ENE visible
04 Aug - 04:47:39 10° W 04:57:01 82° S 05:06:12 10° E visible
04 Aug - 06:52:21 10° W 07:01:28 66° SSW 07:10:31 10° ESE daylight
04 Aug - 08:57:22 10° W 09:04:58 31° SW 09:12:37 10° SSE daylight
05 Aug - 00:17:19 10° S 00:24:17 23° SE 00:31:05 10° E visible
05 Aug - 02:18:21 10° SW 02:27:33 57° SSE 02:36:29 10° ENE visible
05 Aug - 04:22:27 10° W 04:31:51 82° S 04:41:04 10° E visible
05 Aug - 06:27:10 10° W 06:36:21 68° SSW 06:45:24 10° ESE daylight
05 Aug - 08:32:06 10° W 08:39:56 33° SW 08:47:46 10° SSE daylight
05 Aug - 23:52:39 10° S 23:59:15 21° SE 00:05:44 10° E visible
06 Aug - 01:53:16 10° SW 02:02:26 54° SSE 02:11:20 10° ENE visible
06 Aug - 03:57:16 10° W 04:06:42 81° S 04:15:54 10° E visible
06 Aug - 06:01:59 10° W 06:11:12 71° SSW 06:20:18 10° ESE daylight
06 Aug - 08:06:52 10° WNW 08:14:53 35° SW 08:22:54 10° SSE daylight
06 Aug - 23:28:01 10° S 23:34:14 19° SE 23:40:19 10° E visible
07 Aug - 01:28:11 10° SW 01:37:19 52° SSE 01:46:11 10° ENE visible
07 Aug - 03:32:04 10° WSW 03:41:31 80° S 03:50:45 10° E visible
07 Aug - 05:36:48 10° W 05:46:04 73° SSW 05:55:11 10° ESE daylight
07 Aug - 07:41:39 10° WNW 07:49:50 38° SW 07:58:00 10° SSE daylight
07 Aug - 23:03:28 10° SSE 23:09:13 18° SE 23:14:52 10° E visible
08 Aug - 01:03:08 10° SW 01:12:13 49° SSE 01:21:01 10° ENE visible
08 Aug - 03:06:53 10° WSW 03:16:22 79° S 03:25:35 10° E visible
08 Aug - 05:11:37 10° W 05:20:55 75° SSW 05:30:04 10° ESE visible
08 Aug - 07:16:25 10° WNW 07:24:46 40° SW 07:33:04 10° SSE daylight
08 Aug - 09:24:35 10° WSW 09:27:19 12° WSW 09:30:02 10° SW daylight
08 Aug - 22:38:59 10° SSE 22:44:12 16° SE 22:49:20 10° E visible
09 Aug - 00:38:06 10° SW 00:47:07 46° SE 00:55:50 10° ENE visible
09 Aug - 02:41:41 10° WSW 02:51:12 78° S 03:00:26 10° E visible
09 Aug - 04:46:25 10° W 04:55:47 76° SSW 05:04:55 10° ESE visible
09 Aug - 06:51:13 10° WNW 06:59:42 43° SW 07:08:07 10° SSE daylight
09 Aug - 08:58:33 10° W 09:02:20 13° SW 09:06:08 10° SSW daylight
09 Aug - 22:14:39 10° SSE 22:19:12 14° SE 22:23:41 10° E visible
10 Aug - 00:13:05 10° SSW 00:22:01 44° SE 00:30:40 10° ENE visible
10 Aug - 02:16:30 10° WSW 02:26:02 77° SSE 02:35:17 10° E visible
10 Aug - 04:21:13 10° W 04:30:37 78° S 04:39:47 10° ESE visible
10 Aug - 06:26:00 10° WNW 06:34:38 45° SW 06:43:10 10° SE daylight
10 Aug - 08:32:47 10° W 08:37:22 15° SW 08:41:56 10° SSW daylight
10 Aug - 21:50:30 10° SSE 21:54:12 13° SE 21:57:52 10° E visible
10 Aug - 23:48:05 10° SSW 23:56:55 41° SE 00:05:28 10° ENE visible
11 Aug - 01:51:19 10° WSW 02:00:53 75° SSE 02:10:08 10° E visible
11 Aug - 03:56:02 10° W 04:05:28 79° S 04:14:39 10° ESE visible
11 Aug - 06:00:48 10° WNW 06:09:33 48° SSW 06:18:11 10° SE daylight
11 Aug - 08:07:10 10° W 08:12:22 17° SW 08:17:35 10° SSW daylight
11 Aug - 21:26:44 10° SE 21:29:13 11° ESE 21:31:39 10° ESE visible
11 Aug - 23:23:06 10° SSW 23:31:50 39° SE 23:40:17 10° ENE visible
